This is the latest recevied weather packets stored in our database for station/object VE3GIF. If no packets are shown the sender has not sent any weather packets the latest 10 day(s).
| Time | Temp. | Humidity | Pressure | Rain* | Wind** | Luminosity | Snow |
|---|---|---|---|---|---|---|---|
| 1778012221 | 10.56° C | 75% | 1005.8 hPa | 0 mm | - | - | - |
| 1778011921 | 11.11° C | 74% | 1006 hPa | 0 mm | - | - | - |
| 1778011621 | 11.11° C | 73% | 1005.9 hPa | 0 mm | - | - | - |
| 1778011321 | 11.67° C | 70% | 1006.1 hPa | 0 mm | - | - | - |
| 1778011020 | 12.22° C | 67% | 1005.9 hPa | 0 mm | - | - | - |
| 1778010720 | 12.78° C | 63% | 1005.7 hPa | 0 mm | - | - | - |
| 1778010420 | 13.33° C | 59% | 1005.4 hPa | 0 mm | - | - | - |
| 1778009819 | 15° C | 56% | 1005.1 hPa | 0 mm | - | - | - |
| 1778009519 | 15° C | 54% | 1005 hPa | 0 mm | - | - | - |
| 1778008918 | 15.56° C | 52% | 1004.6 hPa | 0 mm | - | - | - |
| 1778008618 | 15.56° C | 51% | 1004.5 hPa | 0 mm | - | - | - |
| 1778008017 | 16.11° C | 54% | 1004.5 hPa | 0 mm | - | - | - |
| 1778007717 | 15.56° C | 55% | 1004.3 hPa | 0 mm | - | - | - |
| 1778007417 | 15.56° C | 55% | 1004.4 hPa | 0 mm | - | - | - |
| 1778007117 | 15.56° C | 55% | 1004.3 hPa | 0 mm | - | - | - |
| 1778006816 | 15.56° C | 55% | 1004.4 hPa | 0 mm | - | - | - |
| 1778006516 | 15.56° C | 56% | 1004.3 hPa | 0 mm | - | - | - |
| 1778006216 | 16.11° C | 55% | 1004.1 hPa | 0 mm | - | - | - |
| 1778005916 | 16.67° C | 53% | 1004.1 hPa | 0 mm | - | - | - |
| 1778005315 | 16.67° C | 52% | 1003.9 hPa | 0 mm | - | - | - |
| 1778004114 | 17.22° C | 56% | 1003.6 hPa | 0 mm | - | - | - |
| 1778003814 | 17.22° C | 56% | 1003.5 hPa | 0 mm | - | - | - |
| 1778002913 | 17.22° C | 60% | 1003.2 hPa | 0 mm | - | - | - |
| 1778002312 | 16.67° C | 63% | 1003 hPa | 0 mm | - | - | - |
| 1778001711 | 16.67° C | 64% | 1002.8 hPa | 0 mm | - | - | - |
* Rain latest hour (hover to see other rain measurements)
** Current wind speed in m/s (hover to see current wind gust speed)